Regional Weather Roundup
Issued by NWS Raleigh/Durham, NC

Home | Current Version | Previous Version | Text Only | Print | Product List | Glossary On
Versions: 1 2 3 4 5 6 7 8 9 10 11 12 13 14 15 16 17 18 19 20 21 22 23 24 25 26 27 28 29 30 31 32 33 34 35 36 37 38 39 40 41 42 43 44 45 46 47 48 49 50
000
ASUS42 KRAH 200610
RWRRAH
NORTH CAROLINA WEATHER ROUNDUP
NATIONAL WEATHER SERVICE RALEIGH NC
100 AM EST SAT DEC 20 2014

NOTE: "FAIR" INDICATES FEW OR NO CLOUDS BELOW 12,000 FEET WITH NO
SIGNIFICANT WEATHER AND/OR OBSTRUCTIONS TO VISIBILITY.

NCZ001-053-055-056-065-067-200700-
WESTERN NORTH CAROLINA

CITY           SKY/WX    TMP DP  RH WIND       PRES   REMARKS
ASHEVILLE      CLOUDY    39  28  64 CALM      30.15F
JEFFERSON      MOCLDY    32  22  66 CALM      30.12F
MORGANTON      CLOUDY    38  32  81 CALM      30.22S
HICKORY        CLOUDY    41  28  60 CALM      30.17F
RUTHERFORDTON  CLOUDY    42  34  74 CALM      30.18S
MOUNT AIRY     CLOUDY    35  29  76 CALM      30.21S
BOONE          CLOUDY    30  24  79 CALM      30.14S
$$

NCZ021-022-025-041-071-084-088-200700-
CENTRAL NORTH CAROLINA

CITY           SKY/WX    TMP DP  RH WIND       PRES   REMARKS
CHARLOTTE      CLOUDY    47  25  42 NE5       30.18F
GREENSBORO     CLOUDY    40  26  57 NE3       30.20R
WINSTON-SALEM  CLOUDY    40  24  53 NE3       30.21S
RALEIGH-DURHAM CLOUDY    37  30  75 CALM      30.23R
FORT BRAGG     CLOUDY    39  34  83 CALM      30.21S
FAYETTEVILLE   CLOUDY    39  34  82 N3        30.21R
BURLINGTON     CLOUDY    35  28  75 CALM      30.21S
LAURINBURG     CLOUDY    41  34  76 E6        30.20S
$$

NCZ011-015-027-028-043-044-047-080-103-200700-
NORTHEASTERN NORTH CAROLINA

CITY           SKY/WX    TMP DP  RH WIND       PRES   REMARKS
ROCKY MT-WILSO MOCLDY    34  30  85 N6        30.24R WCI  29
GREENVILLE     MOCLDY    32  32 100 CALM      30.24S
WASHINGTON     PTCLDY    33  30  90 CALM      30.24R
ELIZABETH CITY PTCLDY    40  31  70 N7        30.23F
MANTEO         PTCLDY    39  32  76 NE6       30.22F WCI  35
CAPE HATTERAS  PTCLDY    41  33  73 NE6       30.21F
$$

NCZ078-087-090-091-093-098-101-200700-
SOUTHEASTERN NORTH CAROLINA

CITY           SKY/WX    TMP DP  RH WIND       PRES   REMARKS
LUMBERTON      CLOUDY    45  33  63 NE3       30.20R
GOLDSBORO      CLOUDY    37  36  97 CALM      30.21R
KINSTON        CLOUDY    32  31  95 CALM      30.23R
KENANSVILLE    MOCLDY    37  32  83 CALM      30.23R
NEW BERN       PTCLDY    36  32  85 CALM      30.24R
CHERRY POINT   PTCLDY    37  33  85 CALM      30.23R
BEAUFORT       MOCLDY    42  36  79 NE6       30.21R
JACKSONVILLE   MOCLDY    42  34  73 NE7       30.21S
WILMINGTON     CLOUDY    44  35  70 NE5       30.20R
$$



USA.gov is the U.S. government's official web portal to all federal, state and local government web resources and services.